Wind_Speed
60 60 61 61 61 60 59 60 59 59 59 59 60 61 60 61 62 61 59 59 60 60 60 59 58 58 58 58 59 58 59 60 61 61 61 61 59 58 57 57 56 55 54 52 50 49 48 46 44 44 43 43 44 44 45 46 47 48 50 53 55 57 58 59 59 60 61 61 61 60 60 59 58 56 54 52 50 48 45 43 42 41 41 40 39 38
57 57 57 57 57 57 57 57 57 57 57 58 59 59 59 60 60 58 58 58 58 58 59 58 57 56 57 57 57 57 57 58 58 58 58 58 57 56 55 55 54 53 52 50 48 46 44 43 43 43 42 42 42 43 43 44 44 46 47 50 52 54 55 56 57 57 57 57 58 58 59 59 58 57 55 53 51 49 46 43 42 41 41 41 40 39
54 54 54 54 54 55 55 55 55 55 56 57 57 57 58 58 57 56 56 56 56 56 56 56 55 55 55 56 55 55 54 54 54 55 55 55 54 54 54 53 52 51 50 47 45 43 42 42 42 42 41 41 41 41 41 41 42 43 44 46 48 50 52 52 53 53 53 54 54 54 55 55 55 54 53 50 48 45 42 40 38 38 39 40 40 40
52 51 52 52 52 52 52 52 52 53 54 54 55 55 55 55 54 53 53 53 53 54 54 54 53 53 53 53 53 52 52 51 52 52 52 52 51 51 51 51 50 48 47 45 43 40 39 39 40 40 40 39 39 39 38 39 39 40 40 41 43 45 46 47 48 48 49 49 49 49 48 48 48 47 47 45 43 41 38 36 35 35 36 37 38 39
50 50 50 50 50 50 50 50 50 51 51 52 53 53 53 52 51 51 51 50 50 51 51 51 50 50 50 50 50 49 49 49 49 49 49 49 49 48 48 48 47 46 45 43 40 37 37 38 38 39 38 38 37 37 37 37 37 37 36 35 37 42 45 45 45 45 46 45 44 44 44 43 43 43 42 41 39 38 36 35 34 34 34 35 36 37
49 49 49 49 49 49 49 49 49 49 50 50 51 50 49 49 48 47 47 47 47 47 48 47 46 46 47 46 46 46 46 46 46 46 46 46 45 45 45 44 44 43 42 41 39 37 37 38 38 38 38 37 36 35 35 35 35 35 31 26 28 38 47 49 46 44 44 43 42 41 41 42 42 42 41 40 39 37 36 35 35 34 34 34 35 37
48 48 48 48 48 48 48 48 48 48 48 48 48 47 46 45 45 44 44 44 44 44 44 44 43 43 44 44 43 44 44 44 44 44 43 43 43 43 43 42 42 41 41 41 40 39 39 39 39 38 36 35 34 33 33 34 34 34 32 27 25 33 45 47 43 41 41 39 39 39 39 40 40 41 42 41 40 40 38 37 36 36 36 36 36 37
48 48 47 47 47 48 48 48 47 47 47 46 46 45 44 43 42 42 42 41 41 41 41 41 41 41 41 42 42 43 43 42 42 42 41 41 41 42 42 41 41 41 41 42 41 40 40 40 38 35 34 32 32 32 33 35 36 35 35 32 30 38 47 44 36 34 34 34 34 34 35 36 37 39 40 40 41 40 40 39 38 38 38 38 39 39
48 47 47 47 47 48 48 47 46 46 45 45 45 43 42 41 40 40 39 39 39 39 39 39 39 39 39 40 42 43 43 42 41 40 40 40 41 41 42 42 42 41 41 43 42 41 40 39 36 32 31 32 32 34 35 36 36 35 35 35 35 39 46 46 38 30 30 32 32 33 34 35 36 37 37 38 39 39 39 39 39 38 38 39 40 41
48 48 48 48 48 49 48 47 46 46 46 46 45 43 41 40 39 39 39 39 38 38 38 38 38 39 39 40 42 43 43 42 41 40 40 40 41 42 42 42 42 41 42 42 42 42 39 37 33 30 30 32 34 36 36 35 34 34 35 36 38 39 42 47 44 37 35 36 34 34 36 38 39 39 38 38 38 37 37 38 38 38 38 38 38 39
48 49 49 49 50 50 49 48 47 47 47 47 46 44 42 40 40 40 40 39 39 39 39 38 39 40 40 40 41 43 42 42 42 42 41 41 42 42 42 42 42 41 42 41 42 42 39 35 29 26 29 33 34 34 34 33 32 33 36 37 39 39 39 44 46 45 45 43 40 39 41 42 43 43 42 41 39 36 36 36 37 37 37 37 36 36
49 50 50 51 51 50 49 48 48 48 49 48 47 45 43 41 40 41 41 40 39 40 40 40 40 40 40 41 41 42 42 42 42 43 42 42 42 42 42 42 42 41 41 41 42 41 38 33 25 22 29 34 34 34 32 31 31 32 34 36 37 38 39 43 46 47 46 44 44 44 45 46 47 46 45 43 41 39 37 37 36 36 35 35 34 34
49 50 51 50 50 50 49 49 49 49 50 50 48 47 45 42 41 42 42 41 41 41 41 41 41 41 41 41 42 42 42 42 43 42 42 42 42 41 42 42 41 41 41 40 41 41 38 33 26 26 33 35 32 30 29 30 30 28 29 31 34 38 40 43 47 49 48 46 45 46 46 47 47 45 44 43 42 41 39 38 37 36 36 36 35 34
48 49 50 50 50 50 50 50 50 51 51 50 50 48 46 44 43 43 44 43 43 43 43 42 41 41 41 41 41 42 42 42 42 42 42 42 42 41 41 41 40 40 40 40 41 40 38 34 29 30 34 34 29 23 21 25 27 25 28 31 33 37 40 43 46 48 48 47 46 46 47 47 47 46 45 44 43 42 41 39 39 39 40 40 40 39
48 49 49 50 50 50 51 51 51 51 51 50 50 49 48 46 45 45 45 45 45 44 44 43 42 41 40 40 41 42 42 42 42 42 42 42 41 41 40 39 39 39 39 40 40 39 38 34 31 32 32 31 28 21 17 22 27 30 34 36 36 37 40 43 45 46 46 46 46 46 47 47 47 47 47 47 47 46 45 43 41 41 42 44 44 44
49 49 49 49 50 50 51 51 51 50 50 50 50 49 49 48 47 47 46 46 46 45 44 43 42 41 41 42 42 42 43 43 43 43 42 42 41 40 39 39 39 40 40 39 39 38 38 36 34 34 32 29 24 19 18 24 33 38 40 40 39 39 41 44 45 45 46 47 48 48 48 48 47 47 47 47 48 49 48 47 46 45 45 46 46 45
49 49 49 49 49 49 50 50 50 50 50 49 49 49 50 49 48 47 47 47 46 45 44 44 43 42 42 42 42 42 43 43 44 43 42 42 41 40 39 39 40 41 40 39 38 38 38 38 38 36 33 29 23 19 20 27 36 42 44 45 44 44 45 47 47 47 46 46 48 48 49 50 49 48 48 48 49 49 50 50 50 49 49 49 48 46
47 48 48 48 48 48 49 49 49 49 48 48 48 48 49 48 47 47 47 46 46 45 45 44 44 43 43 43 43 43 42 43 44 44 43 42 42 41 41 41 41 42 41 40 40 39 39 40 40 37 34 32 30 26 26 29 34 39 45 48 48 48 49 50 51 51 49 48 49 50 51 51 50 50 49 49 50 50 50 52 53 52 52 52 51 50
45 46 47 47 47 48 48 48 48 48 48 48 47 47 47 47 46 47 47 45 45 44 44 43 43 43 43 43 43 43 43 43 43 44 44 43 43 42 42 42 42 43 42 42 41 41 42 42 39 36 35 37 37 34 33 33 33 36 41 45 46 45 46 47 48 49 49 48 49 50 50 50 50 49 49 50 51 51 51 53 54 55 54 54 54 53
44 45 46 46 47 48 47 48 48 47 47 47 47 47 46 45 45 46 46 45 45 44 43 43 42 42 43 43 43 43 43 43 43 43 43 44 44 43 43 42 42 42 42 43 42 42 43 43 39 36 37 41 43 42 42 42 41 42 44 47 45 43 43 45 47 47 47 47 48 50 51 52 53 53 52 52 53 54 53 54 55 55 56 55 55 55
43 44 45 46 47 47 47 47 47 47 47 46 45 45 45 45 45 45 45 45 45 44 43 43 43 43 44 44 44 44 44 44 44 43 43 44 45 44 44 43 42 42 43 43 43 44 45 45 43 42 42 44 47 49 49 48 47 49 52 54 51 47 47 48 49 50 50 50 51 52 52 53 54 54 53 54 55 55 56 56 56 56 57 57 57 56
43 44 45 47 47 47 46 46 45 45 45 45 44 45 46 46 46 46 45 45 45 45 44 44 44 44 45 45 45 45 45 45 45 45 45 46 46 46 45 44 43 44 44 45 44 45 46 46 46 47 47 48 52 55 55 53 51 53 58 60 59 57 55 55 55 54 53 53 53 52 52 52 52 53 53 54 55 56 56 56 56 55 56 57 57 56
45 45 47 47 46 46 45 45 45 45 45 46 45 45 46 46 46 46 46 46 46 46 45 45 44 45 45 46 47 47 47 48 47 47 48 48 48 48 47 47 46 46 46 46 45 46 46 45 46 49 51 52 55 58 60 59 57 57 60 62 64 63 61 60 60 57 55 54 54 55 56 56 56 56 57 58 58 59 59 58 58 58 58 59 60 59
46 47 48 47 46 46 46 45 45 45 46 46 46 46 46 47 47 47 47 47 47 47 46 46 46 46 47 48 49 49 49 50 50 49 50 50 50 50 49 48 48 48 48 47 46 47 46 45 46 49 52 55 58 61 62 63 61 60 60 62 63 64 64 63 61 59 58 57 58 60 61 60 60 60 61 61 61 61 62 61 61 61 61 62 63 64
49 49 49 49 49 47 46 46 46 47 48 48 48 48 49 49 49 49 49 49 49 48 48 48 47 48 49 49 49 50 50 50 51 51 51 51 51 50 50 49 49 49 49 48 48 48 48 48 48 50 52 55 58 62 63 63 63 61 61 60 60 61 63 63 63 63 64 63 64 64 64 63 63 63 63 62 62 62 62 62 62 62 63 63 63 64
53 52 51 51 50 49 48 50 51 51 51 51 51 51 51 51 51 51 51 51 50 50 49 48 48 49 50 50 50 50 50 51 51 51 51 52 51 51 50 50 50 49 49 50 50 50 50 51 51 52 53 55 58 61 63 64 64 64 63 63 63 63 64 66 67 68 69 69 69 68 67 67 66 66 66 64 64 63 63 63 63 64 64 64 64 64
57 55 53 53 53 52 52 53 54 54 53 53 53 52 52 52 52 52 53 52 52 51 51 50 50 51 52 52 52 52 52 52 52 52 52 52 52 52 52 51 51 51 51 51 52 52 53 53 53 53 54 56 58 60 62 64 66 66 67 67 68 69 69 69 70 71 72 73 72 71 70 70 69 69 68 66 65 65 65 65 65 65 65 65 64 63
59 58 56 55 55 55 55 55 55 56 56 56 55 55 54 54 55 55 55 54 54 54 53 53 53 53 54 55 55 55 54 54 54 54 54 54 54 54 54 53 53 53 53 54 54 54 55 55 55 55 56 57 58 60 62 63 64 66 68 71 72 73 73 73 74 75 76 76 75 73 72 71 71 70 69 68 67 68 68 67 66 66 65 64 63 62
60 59 59 58 57 57 57 57 57 58 58 58 57 57 57 57 57 57 56 56 56 55 55 55 55 56 57 58 58 58 57 56 56 56 56 56 56 56 56 55 56 56 56 56 57 57 57 57 57 58 58 59 60 61 62 63 64 66 67 69 72 74 75 76 76 76 77 76 75 74 73 73 72 71 70 69 69 68 68 68 68 67 66 64 63 61
59 59 59 59 59 59 59 60 60 60 60 60 59 59 59 59 59 58 58 57 57 57 57 57 58 58 59 59 59 60 59 59 58 58 58 58 58 58 58 58 58 58 59 59 60 60 60 60 60 61 61 62 63 64 65 66 67 68 69 70 71 72 74 75 76 76 76 76 75 75 74 73 73 72 71 71 70 70 69 68 68 67 66 64 63 61
58 58 59 59 60 60 61 62 62 62 62 62 62 61 61 61 60 60 59 59 58 58 59 59 60 60 60 61 61 62 62 61 61 60 60 60 61 61 61 61 61 61 61 62 62 62 62 63 63 64 64 65 66 67 68 69 70 71 72 73 74 75 76 76 77 77 77 77 76 76 75 74 74 73 72 72 72 71 70 69 68 67 66 65 63 62
57 57 58 59 59 60 62 64 64 65 64 64 64 64 63 63 62 62 62 61 61 61 61 61 62 62 62 63 63 64 65 64 64 64 64 64 65 65 66 66 66 65 65 65 65 65 65 66 66 67 67 68 69 70 71 73 74 75 75 76 77 78 78 79 79 79 79 79 78 77 77 76 76 75 75 74 73 72 71 70 69 68 67 66 65 64
56 56 58 58 58 59 62 64 64 65 64 64 64 64 64 64 63 63 63 63 63 63 63 63 64 65 65 65 65 66 67 67 67 67 67 68 68 69 69 69 69 69 69 68 68 68 69 69 70 70 71 72 73 74 75 76 77 77 78 78 79 80 80 81 81 81 81 81 80 80 80 79 79 78 77 76 74 73 72 71 71 70 69 68 67 66
56 57 57 58 58 58 60 62 62 62 61 62 63 63 63 62 62 62 62 62 62 63 62 61 62 63 64 64 64 65 66 68 69 69 69 70 71 71 71 71 71 71 71 70 70 70 70 71 71 73 74 75 76 77 78 79 79 80 80 80 81 81 82 82 83 83 83 83 83 82 82 81 80 78 77 76 74 73 71 70 70 69 69 69 68 68
55 56 57 57 58 58 58 59 58 57 58 60 60 60 60 60 60 60 60 61 61 61 60 58 58 59 59 59 59 60 61 63 64 66 67 68 68 67 67 68 69 69 69 69 68 67 67 67 68 70 71 72 74 76 78 79 78 78 79 80 81 81 82 82 83 83 83 83 83 83 82 81 79 78 77 75 74 73 72 71 70 69 68 69 69 69
56 57 58 58 58 58 58 57 56 56 58 58 58 58 58 59 59 59 59 60 60 60 59 58 57 57 57 57 58 58 58 58 59 60 61 61 59 57 57 61 63 64 65 65 64 63 62 63 64 65 65 67 69 72 73 73 73 73 74 75 76 77 78 79 80 81 82 82 82 82 81 80 78 77 76 75 75 74 73 73 72 71 71 71 71 70
59 59 59 60 60 60 60 59 58 58 58 57 57 58 60 60 61 60 60 61 60 60 59 59 59 59 59 60 60 59 59 59 58 58 58 58 57 56 57 59 60 60 61 62 61 60 60 61 63 63 63 65 67 69 70 69 68 67 68 68 68 70 71 73 75 77 78 79 79 79 78 77 76 75 75 75 74 74 74 74 73 73 73 73 73 73
62 62 62 63 64 63 63 63 62 60 59 59 59 60 61 62 62 62 62 62 61 61 62 62 62 62 62 62 62 61 61 60 60 59 59 59 59 59 59 59 59 58 59 60 59 59 59 61 63 64 65 66 67 69 70 69 68 66 65 65 65 65 66 68 69 71 72 73 73 73 72 71 71 71 71 71 71 72 72 72 72 72 72 73 73 74
64 64 65 66 67 66 66 66 64 63 62 62 62 62 62 63 63 63 63 62 62 64 65 65 65 65 64 64 64 64 63 63 62 61 61 60 60 60 60 60 60 59 59 60 60 59 60 61 62 64 65 66 68 69 71 71 70 69 68 67 66 66 66 66 67 68 69 69 69 69 68 67 67 67 67 67 68 67 67 67 68 68 69 70 71 71
66 67 67 68 68 68 67 67 66 64 63 64 65 65 66 66 66 66 65 64 64 67 69 68 68 68 67 68 68 67 67 66 65 64 64 63 63 62 62 62 62 62 62 61 61 61 62 62 63 65 66 67 68 69 70 72 72 72 71 71 70 69 68 68 68 68 69 69 69 69 69 68 67 66 66 66 66 66 65 64 65 65 66 66 67 68
68 69 69 69 69 69 69 69 68 66 65 65 67 68 69 69 69 69 67 68 69 70 71 71 71 71 71 71 71 71 71 70 69 69 68 68 67 67 66 66 66 65 65 65 65 65 65 65 66 67 68 68 70 71 72 73 74 74 74 74 73 73 72 72 71 71 71 71 71 71 71 71 70 69 68 67 67 66 65 64 64 65 65 65 65 65
69 70 70 70 70 70 70 71 70 68 67 68 69 70 71 71 71 70 71 72 72 73 73 74 74 74 74 74 74 74 74 73 73 73 72 72 72 71 71 71 70 70 70 70 69 69 70 70 69 69 70 70 71 72 73 74 75 76 76 76 76 75 75 75 75 75 74 74 74 74 74 74 74 73 73 72 70 69 67 66 66 66 67 66 66 65
68 70 71 71 71 71 72 72 71 70 70 71 72 72 73 73 73 73 73 74 74 74 75 76 76 76 77 77 77 77 77 77 77 76 76 76 76 75 75 75 75 75 75 75 74 74 74 74 74 73 73 73 73 74 74 75 76 77 78 78 78 78 78 78 78 78 78 78 78 78 77 77 77 77 77 77 75 74 72 71 70 69 69 69 68 67
67 68 70 71 71 71 72 72 72 71 72 72 73 74 74 75 75 75 76 76 76 77 77 77 78 78 79 79 80 80 80 80 80 79 79 79 79 79 79 79 79 79 78 78 78 78 78 77 77 76 75 75 75 75 75 75 76 78 78 79 79 80 81 81 81 81 81 81 80 80 80 80 81 81 81 81 81 80 78 77 75 74 73 72 71 70
65 66 68 69 70 71 72 72 71 71 72 73 73 74 75 76 76 77 77 78 78 78 79 80 80 81 81 82 82 82 83 83 83 83 83 82 82 82 82 82 82 82 81 81 81 80 79 79 78 78 77 76 75 74 74 75 75 77 78 79 79 80 81 82 82 83 83 83 83 83 83 83 84 84 84 84 84 84 84 83 82 80 78 77 75 74
64 64 66 67 68 69 70 71 71 71 71 72 72 73 74 75 76 77 78 78 79 80 80 81 82 83 83 84 84 85 85 86 86 86 86 86 85 85 84 85 85 85 84 84 84 83 83 82 81 80 79 79 77 76 75 75 75 76 77 78 78 79 80 81 82 82 83 84 84 85 85 86 86 87 87 87 87 87 88 88 87 86 85 83 81 79
63 63 64 65 66 67 68 69 69 70 70 70 71 72 72 73 74 75 76 78 79 80 81 81 82 83 84 85 86 86 87 87 88 88 87 87 87 86 86 86 86 87 86 86 86 86 85 85 84 84 83 83 82 80 79 78 78 77 78 78 78 78 78 79 80 81 81 82 83 84 85 85 86 87 88 89 89 89 90 90 90 90 90 89 87 85
59 60 62 63 64 66 67 68 68 69 69 70 70 71 71 72 73 73 74 76 77 78 79 80 81 82 83 84 85 86 86 87 87 87 87 87 87 87 86 86 86 87 87 87 87 87 86 86 86 86 85 85 84 84 82 82 81 80 79 78 78 77 77 78 78 79 79 80 81 82 84 85 85 86 87 88 89 90 90 91 91 91 92 92 91 90
52 54 56 58 60 62 64 65 66 68 69 69 70 71 71 72 73 73 74 74 75 76 76 77 78 79 80 81 82 83 83 84 84 85 85 86 86 86 85 85 85 85 86 86 87 87 87 87 87 87 87 86 86 84 83 82 81 80 78 78 77 77 77 78 78 79 79 81 82 83 84 85 85 86 86 87 87 88 89 90 90 90 91 92 92 91
49 50 52 53 55 57 58 60 61 63 64 66 67 68 69 70 71 72 73 73 74 75 75 76 76 77 78 79 79 80 81 82 82 83 83 84 84 84 83 83 83 84 84 85 85 86 86 87 87 87 87 87 86 85 84 82 80 78 76 75 74 74 75 76 77 78 79 81 83 84 85 85 85 85 85 85 86 86 87 88 89 89 89 90 90 90
46 47 48 49 50 51 52 53 54 56 57 58 60 62 63 65 66 67 68 70 71 71 72 73 73 73 74 74 75 76 77 78 79 79 80 80 80 80 79 79 80 80 81 82 82 83 83 83 83 83 83 84 84 83 82 81 79 76 73 72 71 71 72 73 74 74 76 77 79 81 82 83 83 83 83 83 84 84 84 85 87 87 88 88 88 88
Wind_Direction
246 247 248 249 251 252 252 253 253 253 254 254 254 254 255 255 256 257 258 259 259 260 261 261 261 262 262 263 263 263 263 264 264 265 266 267 268 269 268 268 268 267 267 267 268 269 269 269 267 266 265 265 265 265 264 263 262 261 261 262 264 265 266 268 269 270 270 271 272 274 275 276 277 279 281 282 283 283 282 280 276 272 269 267 266 268
245 246 248 249 250 250 250 251 251 252 252 252 252 253 254 254 256 257 258 258 259 260 261 261 261 262 262 262 262 263 263 263 264 264 265 265 266 266 265 265 265 265 265 266 266 266 266 266 266 266 267 267 266 265 264 264 263 262 262 263 264 266 268 269 271 272 273 274 275 276 276 277 278 280 281 282 282 281 280 278 275 271 268 266 266 268
245 246 247 247 248 248 249 250 250 251 251 251 252 253 253 254 256 257 257 258 259 260 260 261 261 261 261 261 261 261 261 262 262 262 262 263 263 263 263 263 263 264 265 265 264 264 264 265 266 268 268 268 268 266 265 265 264 264 265 266 268 270 272 274 276 278 278 279 279 279 279 279 280 280 281 281 281 281 280 278 275 272 269 267 266 267
244 245 246 246 247 248 248 249 250 250 250 251 252 253 254 255 256 256 257 258 258 259 260 260 260 260 260 260 260 260 260 259 259 260 260 261 261 261 262 263 263 264 265 265 265 265 266 266 267 268 268 268 267 267 266 266 266 268 269 272 275 277 279 280 282 282 283 282 282 281 280 280 281 282 282 282 282 283 282 281 279 275 272 270 268 268
244 244 245 246 247 247 248 249 249 249 250 251 252 253 254 255 256 257 258 258 259 260 260 261 261 261 260 260 260 259 259 258 258 259 259 259 260 260 261 262 263 264 265 266 267 266 266 266 265 266 266 265 266 267 268 269 271 273 276 282 288 289 288 286 285 284 283 282 282 283 284 284 285 285 285 286 286 286 286 285 284 281 277 276 274 273
243 244 245 246 246 247 247 248 248 249 250 251 252 254 256 257 258 259 259 260 260 260 260 260 260 259 259 259 258 258 257 257 257 257 258 259 259 260 261 262 263 264 265 267 267 265 264 262 261 261 262 264 266 269 271 273 274 275 277 279 285 290 289 285 282 280 278 278 279 282 285 286 287 288 288 288 287 287 287 287 286 284 283 281 280 279
242 243 244 245 246 247 247 247 248 249 250 251 253 255 257 258 259 259 260 260 259 259 259 259 258 258 258 258 257 256 256 256 256 256 257 258 259 260 260 261 262 263 264 264 264 262 261 260 260 261 263 266 270 272 273 273 271 270 268 261 253 263 271 273 274 273 272 275 277 280 283 283 283 284 285 286 286 286 287 286 284 282 282 281 281 280
242 243 244 245 246 246 247 247 248 249 251 252 254 255 257 258 259 259 259 259 259 258 258 258 257 257 257 257 256 256 255 255 255 256 257 258 258 259 260 260 260 261 262 262 261 261 260 261 262 264 267 270 271 271 269 267 265 264 263 260 249 248 254 256 263 271 275 277 279 280 281 280 280 281 281 282 283 284 285 284 282 281 279 279 279 280
242 243 243 244 245 246 246 247 248 250 251 252 254 255 257 258 258 258 258 259 258 258 258 257 257 257 256 256 256 256 256 255 255 255 255 256 256 257 258 258 258 259 260 260 261 260 260 262 265 268 271 272 271 269 267 266 266 267 266 265 260 256 255 255 257 267 275 277 278 279 280 281 283 284 283 283 283 283 285 284 283 283 282 282 281 281
241 241 241 242 243 244 245 246 247 248 249 251 252 253 254 255 256 256 257 257 257 257 257 256 256 255 255 254 255 255 256 256 255 255 254 254 254 255 256 257 257 258 258 259 260 260 260 262 266 271 272 272 270 269 269 270 272 273 272 269 265 261 260 259 257 259 268 274 274 276 279 281 284 285 286 286 286 286 287 286 286 286 285 283 282 281
240 240 240 241 242 243 244 245 245 247 248 249 250 252 253 254 254 255 255 256 256 256 256 256 255 254 254 253 254 254 255 256 256 255 254 253 253 253 254 255 255 256 256 257 258 259 260 262 267 273 274 271 270 270 273 275 275 275 274 271 268 263 259 257 256 257 265 271 272 273 276 278 280 282 283 285 286 287 288 288 287 286 285 283 280 278
239 240 240 241 242 243 245 245 246 247 248 250 251 252 253 253 254 255 255 256 256 256 255 255 254 254 253 253 253 254 255 255 255 255 255 253 253 252 252 253 253 253 254 255 255 257 258 259 259 259 262 267 271 273 276 277 277 277 277 275 270 264 256 251 252 257 264 270 271 273 275 277 278 279 280 282 284 285 287 287 286 286 285 283 280 277
239 240 241 242 244 245 246 247 247 248 249 250 250 251 252 253 253 254 255 255 255 254 254 253 253 252 252 253 253 254 254 253 253 254 254 253 252 252 252 252 253 253 253 253 254 255 255 255 250 240 243 251 263 274 280 281 281 280 276 271 265 261 255 249 249 254 259 265 269 273 275 276 277 277 278 280 282 283 284 283 282 282 282 281 280 278
241 241 242 243 244 245 245 246 246 247 248 249 251 251 252 253 253 253 254 253 252 252 252 253 253 253 253 253 253 253 252 252 252 252 252 252 252 252 252 252 252 252 252 253 254 256 257 257 253 245 243 244 253 269 281 282 281 272 261 257 258 259 257 252 250 251 254 259 265 270 273 274 274 275 278 280 280 280 280 279 279 279 279 279 278 278
242 242 242 242 243 244 245 245 246 247 248 249 250 251 252 252 251 251 251 251 251 251 252 253 253 253 252 251 250 250 251 251 251 251 251 251 251 251 251 251 251 251 250 251 254 257 259 258 255 252 249 248 251 255 259 266 264 253 249 250 253 257 256 253 252 253 255 258 262 267 270 272 274 275 277 278 279 279 279 278 278 278 279 278 278 278
242 242 242 242 243 244 245 246 247 247 248 249 250 251 251 251 250 250 250 250 250 251 251 252 252 251 250 250 250 250 251 251 251 250 250 250 250 250 250 249 249 250 250 251 254 257 260 260 257 253 252 250 246 238 237 249 251 247 246 248 250 252 254 255 256 258 260 261 263 265 268 271 272 273 274 275 277 279 280 280 279 278 278 278 278 279
243 243 243 243 244 245 246 247 248 248 248 249 250 251 251 251 250 250 249 249 250 250 250 250 250 249 249 249 250 250 250 251 251 251 250 249 249 248 247 247 247 249 250 251 253 255 258 258 256 253 251 242 224 208 216 235 246 249 250 250 249 249 251 254 256 259 261 262 262 263 265 266 268 270 272 274 276 279 281 282 281 280 279 278 278 278
243 245 245 244 244 245 246 247 247 248 248 249 249 250 251 251 251 250 249 249 249 249 249 249 249 249 249 249 249 249 249 250 251 251 250 249 248 246 245 245 245 246 248 248 249 251 251 251 251 250 245 230 212 200 208 228 243 250 253 253 251 250 251 254 255 258 260 260 260 261 263 265 266 268 271 273 276 278 280 280 281 280 280 279 279 278
243 244 245 244 244 244 245 245 246 246 247 247 247 248 249 250 250 249 249 248 248 249 248 249 249 249 250 249 249 250 249 249 250 251 251 251 249 247 245 244 244 245 245 245 245 245 245 246 246 244 237 225 215 205 206 220 235 242 247 250 250 250 250 252 254 256 258 259 259 260 262 264 266 268 270 271 273 275 276 277 277 278 278 278 278 278
242 243 244 244 244 243 244 245 245 245 246 246 247 247 247 248 248 248 248 247 246 247 247 247 247 247 248 248 248 249 249 249 249 250 251 251 250 249 247 245 243 244 245 245 244 243 243 244 239 233 228 221 216 210 206 214 224 230 237 244 248 248 247 248 250 253 255 257 257 258 260 262 264 266 268 270 271 271 272 273 275 276 276 276 276 276
242 243 244 244 244 244 244 244 245 245 245 245 246 246 245 245 246 246 247 247 246 245 245 245 245 245 246 246 247 248 248 248 248 249 250 251 251 250 248 247 245 244 244 244 244 243 242 241 234 228 225 221 217 215 212 214 219 223 230 238 244 246 245 246 247 248 252 255 257 259 261 264 266 267 267 268 269 270 270 271 272 274 276 277 277 276
241 242 243 243 244 245 245 245 245 245 245 245 244 245 245 244 244 245 245 246 246 245 244 244 245 245 246 247 247 247 247 248 248 249 250 250 251 251 250 249 248 246 246 245 244 243 242 241 236 230 227 224 220 219 218 217 218 220 225 233 239 243 246 247 248 249 252 255 257 261 265 269 269 268 267 267 267 268 268 269 270 271 273 276 277 277
241 241 243 244 245 246 246 246 245 245 244 244 243 243 245 246 245 245 245 245 245 245 245 245 245 246 247 247 247 247 247 248 249 249 250 251 252 252 252 252 250 249 249 246 245 244 242 242 239 233 230 228 226 224 223 222 222 222 224 229 235 241 246 249 252 253 254 257 259 263 267 270 270 269 268 268 267 267 268 268 269 270 270 271 272 273
242 242 244 245 245 245 245 246 246 245 245 245 244 243 244 245 246 245 245 245 245 245 246 246 246 246 247 247 248 248 249 250 250 250 251 251 251 252 252 252 252 250 250 248 246 245 243 240 237 234 233 233 231 230 230 231 231 230 229 230 234 239 244 249 251 252 253 257 261 265 267 267 269 270 271 271 270 269 269 270 270 271 271 270 270 269
242 242 243 244 244 243 245 246 246 245 245 245 244 243 243 243 244 245 245 246 246 247 247 248 248 248 249 250 250 251 252 253 253 253 253 252 252 252 252 252 251 250 249 248 247 246 245 242 238 235 235 236 235 235 236 238 239 239 238 237 237 241 245 248 249 250 253 257 262 265 267 267 268 270 271 272 272 272 271 272 272 273 273 272 271 270
242 241 241 243 244 243 243 244 244 244 244 244 244 244 244 245 246 246 247 248 249 250 250 251 252 252 253 253 254 254 254 255 255 255 254 254 254 253 253 252 251 250 248 247 246 246 245 245 242 239 238 238 237 237 238 240 241 242 242 241 241 244 248 249 250 252 255 259 262 265 266 267 269 270 271 272 272 272 273 273 274 275 275 274 274 273
243 242 241 242 244 243 242 242 244 244 244 245 245 246 246 247 248 248 249 249 250 251 251 252 253 254 255 256 256 256 255 256 256 256 256 255 255 254 253 253 252 251 249 248 247 246 245 245 244 243 242 241 241 240 241 242 242 243 244 244 245 247 249 250 252 254 256 259 262 264 265 266 268 270 272 272 272 272 273 274 275 275 275 275 274 274
241 242 241 241 243 244 243 243 244 245 245 244 245 246 246 246 247 248 248 249 249 250 251 252 252 254 255 256 256 256 256 257 257 257 257 256 256 255 254 254 253 252 251 250 248 247 246 245 245 245 245 244 244 244 245 245 245 245 245 245 246 248 249 251 252 254 256 259 260 262 264 265 267 269 271 271 272 273 274 274 274 274 274 274 273 273
241 241 241 241 242 244 245 245 245 246 247 246 246 246 247 247 248 248 248 249 250 250 251 251 251 252 254 255 256 257 257 257 257 257 257 257 257 256 255 255 254 253 252 251 250 249 249 248 247 247 247 247 247 247 247 248 248 247 247 247 247 248 249 250 252 253 255 257 259 261 263 264 266 268 269 270 271 272 273 274 274 274 273 272 271 271
242 242 242 242 242 243 244 245 245 246 247 248 247 246 247 247 248 249 249 250 250 250 251 251 252 252 254 255 256 257 257 257 257 257 257 257 257 257 256 256 255 254 254 253 252 251 250 250 249 249 248 249 249 249 250 250 250 250 250 250 250 250 251 251 252 254 255 257 259 260 262 264 265 266 268 269 270 270 271 271 272 272 271 270 269 269
243 243 243 243 243 243 244 245 246 245 246 247 248 248 248 249 249 250 251 251 251 251 251 252 252 253 254 254 255 256 256 256 256 257 257 257 257 257 257 256 256 255 255 255 255 254 254 253 252 251 251 250 250 251 251 252 252 252 252 253 253 253 254 254 255 255 257 258 259 261 262 263 264 265 266 267 268 268 268 268 269 268 268 268 267 266
243 244 244 244 244 244 245 246 246 246 247 248 249 250 251 251 252 252 252 253 253 253 253 253 254 254 254 255 255 256 258 258 258 257 257 257 257 257 258 258 257 257 257 257 257 257 257 257 257 256 255 254 253 253 253 253 253 253 254 254 255 256 256 257 258 258 259 259 260 261 262 263 264 264 265 265 266 266 266 266 266 266 265 265 264 264
246 246 246 246 246 245 246 247 247 248 249 249 251 252 253 254 255 256 256 256 256 256 256 255 255 256 256 256 256 257 257 258 258 258 257 257 257 258 258 259 259 260 260 260 260 259 259 259 259 259 259 258 257 256 256 256 256 256 257 257 258 259 259 260 261 262 262 262 263 263 263 263 264 264 265 265 265 265 265 265 264 264 263 263 262 262
250 250 250 250 250 249 249 249 250 251 252 252 253 253 254 255 256 257 258 259 259 259 258 257 255 255 254 254 254 253 253 254 255 256 256 256 257 258 259 259 260 261 261 262 261 261 261 261 261 261 260 260 260 259 259 258 258 258 259 259 260 261 261 262 263 264 265 265 265 265 265 265 265 265 265 265 265 265 264 264 263 262 262 261 261 261
251 252 253 253 253 253 252 253 254 255 255 255 255 256 256 256 256 256 257 257 258 258 258 257 255 254 254 252 251 250 250 251 252 254 254 255 257 258 258 259 259 260 261 262 262 262 262 262 261 261 261 261 261 261 260 260 260 260 260 260 261 261 262 263 264 264 265 265 265 265 265 266 266 266 265 265 265 264 263 262 262 261 261 260 260 260
249 250 251 252 253 254 254 254 255 255 256 257 258 258 258 258 257 257 256 256 257 258 259 259 258 258 257 257 256 255 254 253 253 252 253 254 254 254 254 255 256 257 258 260 261 261 261 261 261 261 261 262 262 262 262 262 262 262 261 261 261 261 262 262 263 263 263 264 264 265 265 265 265 265 265 264 264 263 262 261 261 261 260 260 260 260
247 247 248 249 250 251 252 252 252 252 253 255 256 256 257 258 259 259 259 259 260 260 261 261 261 260 260 260 260 260 259 258 256 255 254 253 252 250 250 252 253 253 253 255 258 259 260 260 261 262 262 262 263 263 264 264 264 264 263 263 262 262 261 261 261 261 262 262 263 263 264 264 264 264 264 263 263 262 262 261 260 260 260 260 260 259
248 247 247 247 247 247 248 249 250 250 251 252 252 253 254 256 258 259 260 261 262 263 263 263 262 262 262 262 262 262 261 260 259 258 256 255 254 253 252 252 252 251 251 252 253 255 256 258 260 262 263 263 264 265 266 267 266 266 265 265 264 264 263 263 262 262 262 262 262 263 263 263 263 263 263 262 262 261 261 260 260 260 259 259 259 259
249 249 249 248 248 248 248 249 249 250 250 251 252 253 253 254 256 257 259 260 262 263 263 263 264 264 265 265 265 265 264 263 263 261 260 259 258 257 256 256 255 254 254 254 254 255 256 256 258 259 260 261 262 264 266 267 267 267 266 266 265 264 264 264 264 264 264 264 264 264 263 263 262 262 262 262 262 261 260 260 260 260 259 259 258 258
250 250 251 251 252 252 252 252 251 251 251 251 252 253 253 254 254 255 257 258 259 260 261 262 264 264 265 266 266 267 267 267 267 266 266 265 264 263 262 261 260 259 258 257 257 257 257 257 257 257 258 259 260 261 262 264 265 266 266 266 265 264 264 263 263 263 264 264 265 265 265 264 263 262 261 261 261 261 260 260 260 260 259 258 258 258
249 250 250 251 252 253 254 254 254 254 253 253 253 254 255 255 256 257 257 257 258 259 260 262 263 263 264 265 266 266 267 268 269 269 269 269 268 268 267 266 265 264 263 262 261 261 260 259 258 258 258 258 258 259 260 262 263 264 265 266 266 265 265 265 264 263 263 263 264 265 265 266 265 265 263 262 261 261 260 260 260 260 260 259 259 258
248 249 250 250 250 251 252 253 254 254 254 254 254 255 255 256 257 258 258 258 259 260 261 262 262 263 264 265 265 266 267 267 268 268 268 269 269 269 269 268 268 268 267 267 266 265 264 263 261 260 259 259 259 259 259 260 261 262 264 264 265 265 266 266 265 265 265 265 265 265 265 266 266 267 266 265 264 263 262 260 260 259 260 260 260 260
248 250 250 251 251 251 251 252 252 252 253 253 254 254 255 256 256 257 258 258 259 260 261 262 262 263 264 265 265 266 266 267 267 267 268 268 268 269 269 269 269 269 269 269 268 268 267 266 265 264 262 261 260 260 260 260 260 261 261 262 262 263 264 264 264 265 265 266 266 266 267 267 267 268 268 268 267 266 265 264 262 261 261 260 260 260
248 249 251 252 252 253 253 253 253 253 253 253 254 254 255 256 256 257 257 258 259 260 261 261 262 263 264 265 265 266 266 267 267 268 268 268 269 269 269 269 269 269 269 269 269 269 268 268 267 266 265 264 262 261 261 260 261 261 261 261 261 261 261 262 262 263 263 263 264 265 266 266 267 267 268 268 269 268 268 267 266 265 264 263 262 261
249 249 250 251 252 253 254 254 254 254 254 254 254 255 255 256 257 257 258 258 259 260 260 261 262 263 264 265 265 266 267 267 268 268 269 269 269 270 270 270 271 271 271 271 271 271 270 270 269 269 268 267 265 264 263 262 262 261 261 261 261 260 260 261 261 261 261 261 261 262 262 263 263 264 265 266 267 268 268 268 268 267 266 266 265 264
250 250 251 251 252 253 253 254 255 255 255 255 255 255 255 256 256 257 257 258 259 259 260 260 261 262 262 263 264 265 266 266 267 268 268 269 269 270 270 271 271 272 272 272 273 273 273 273 273 272 272 271 270 269 267 266 264 263 263 262 261 261 260 260 260 260 260 260 260 260 260 260 261 261 262 263 263 264 266 267 267 268 267 267 266 266
251 251 252 253 253 254 254 255 255 256 256 256 256 256 256 256 256 256 257 257 258 258 259 259 260 260 261 262 262 263 264 265 266 266 267 268 269 269 270 270 271 272 272 273 273 273 274 274 274 274 274 273 273 272 271 269 268 266 265 264 263 262 261 261 260 260 260 260 260 260 259 259 259 259 260 260 261 261 262 264 265 266 267 267 267 267
251 252 252 253 253 254 255 255 256 257 257 257 258 258 258 258 258 258 257 257 257 257 258 258 259 259 260 260 261 262 263 264 265 266 267 268 268 269 269 269 270 270 271 272 272 272 273 273 273 273 273 272 272 271 271 270 269 268 267 266 266 265 264 264 263 263 262 262 261 261 260 259 258 258 258 258 258 259 260 260 261 263 264 266 266 267
254 254 253 253 253 253 254 254 255 255 256 257 257 258 258 258 259 259 259 259 259 259 259 260 260 260 261 261 262 263 264 264 265 266 267 267 268 268 268 268 268 269 269 269 270 270 271 271 271 272 272 272 272 271 271 270 270 269 268 268 267 267 266 266 266 265 265 265 264 263 262 261 260 259 258 257 257 258 258 258 259 259 260 262 263 265
255 255 255 255 254 255 255 255 255 255 256 256 257 257 258 259 259 260 261 261 261 262 262 262 262 262 262 263 264 264 265 265 265 266 266 266 267 267 267 268 268 268 268 268 268 269 269 269 269 269 270 271 271 272 272 272 271 271 270 269 268 268 267 266 266 265 264 263 263 262 262 262 261 260 259 259 258 258 258 258 258 259 259 259 260 261
255 256 256 257 257 258 258 258 258 259 259 259 259 259 259 260 260 261 261 261 262 262 263 263 263 263 264 264 264 264 264 265 265 265 265 266 267 267 268 268 268 267 267 267 267 267 267 267 267 268 268 268 269 270 271 271 272 272 272 271 270 269 268 267 266 264 263 262 261 261 261 261 261 261 260 260 259 259 258 258 258 259 259 259 260 260
Height
10578 10580 10583 10586 10590 10593 10597 10598 10601 10604 10606 10607 10606 10608 10610 10610 10611 10615 10619 10620 10621 10621 10623 10625 10628 10629 10630 10630 10630 10632 10632 10631 10630 10630 10630 10630 10632 10634 10634 10635 10636 10637 10639 10642 10644 10645 10644 10645 10647 10647 10648 10648 10648 10649 10649 10649 10649 10649 10648 10646 10645 10643 10643 10643 10644 10645 10646 10647 10648 10648 10648 10648 10649 10649 10650 10651 10651 10653 10653 10653 10653 10653 10653 10653 10653 10653
10572 10575 10579 10583 10585 10587 10589 10591 10594 10597 10598 10598 10599 10601 10603 10604 10606 10610 10613 10614 10615 10615 10616 10618 10621 10623 10623 10623 10624 10625 10625 10625 10625 10625 10624 10625 10626 10627 10627 10628 10630 10631 10633 10636 10639 10639 10639 10639 10640 10641 10643 10643 10644 10644 10644 10644 10644 10643 10643 10642 10640 10639 10639 10639 10640 10641 10641 10642 10643 10643 10642 10642 10643 10644 10645 10645 10646 10646 10647 10648 10648 10648 10648 10648 10649 10649
10567 10571 10574 10577 10578 10580 10582 10584 10588 10590 10590 10591 10593 10595 10597 10598 10602 10605 10606 10608 10609 10609 10610 10612 10614 10616 10616 10616 10618 10618 10619 10620 10619 10618 10619 10620 10621 10621 10621 10622 10624 10625 10628 10631 10633 10634 10635 10635 10635 10636 10637 10638 10638 10639 10639 10639 10639 10639 10639 10638 10637 10637 10636 10636 10636 10636 10637 10637 10638 10637 10637 10637 10637 10639 10639 10640 10640 10640 10641 10642 10642 10642 10643 10644 10645 10645
10563 10566 10568 10570 10572 10574 10577 10579 10581 10583 10583 10585 10586 10588 10590 10593 10597 10599 10600 10602 10603 10602 10603 10605 10608 10608 10608 10609 10611 10612 10613 10613 10613 10613 10614 10615 10615 10615 10615 10616 10618 10620 10622 10625 10627 10630 10631 10631 10631 10632 10632 10633 10633 10633 10634 10634 10635 10636 10637 10637 10637 10635 10634 10633 10633 10632 10632 10631 10631 10631 10631 10632 10632 10633 10633 10634 10634 10635 10635 10636 10637 10638 10638 10639 10640 10641
10558 10560 10562 10564 10566 10569 10571 10573 10574 10576 10577 10578 10580 10582 10584 10588 10591 10593 10594 10596 10597 10597 10597 10599 10601 10601 10601 10603 10604 10605 10606 10607 10607 10608 10609 10609 10610 10611 10611 10612 10614 10615 10617 10619 10622 10625 10627 10627 10627 10627 10628 10628 10629 10629 10630 10631 10632 10634 10636 10640 10639 10634 10630 10629 10628 10627 10626 10626 10626 10626 10627 10627 10627 10628 10628 10628 10629 10629 10630 10631 10632 10633 10634 10635 10636 10636
10553 10554 10556 10559 10561 10563 10565 10566 10568 10570 10571 10572 10574 10577 10579 10582 10585 10587 10588 10590 10591 10591 10591 10593 10595 10595 10595 10597 10598 10599 10600 10601 10602 10603 10604 10605 10606 10606 10606 10608 10609 10611 10613 10614 10617 10620 10621 10622 10623 10623 10623 10624 10626 10627 10628 10629 10629 10630 10634 10640 10642 10635 10626 10621 10620 10620 10619 10620 10621 10622 10622 10623 10622 10622 10622 10623 10624 10625 10626 10627 10627 10628 10629 10630 10631 10632
10547 10549 10551 10553 10555 10557 10558 10560 10562 10564 10565 10567 10569 10572 10575 10577 10580 10581 10582 10584 10585 10585 10586 10588 10589 10589 10590 10591 10592 10593 10594 10596 10597 10598 10599 10600 10601 10601 10602 10604 10605 10606 10608 10609 10611 10614 10615 10616 10618 10619 10621 10622 10624 10625 10625 10624 10623 10624 10628 10633 10636 10629 10617 10612 10613 10613 10614 10615 10616 10617 10617 10618 10618 10618 10618 10618 10619 10620 10622 10623 10623 10623 10624 10625 10626 10627
10541 10544 10546 10548 10549 10551 10552 10554 10557 10559 10561 10563 10565 10568 10570 10572 10574 10575 10577 10578 10579 10580 10581 10583 10584 10585 10586 10587 10587 10587 10589 10591 10592 10594 10595 10596 10597 10597 10598 10599 10600 10602 10603 10603 10605 10608 10609 10611 10614 10617 10619 10621 10621 10621 10619 10617 10616 10618 10621 10624 10625 10618 10608 10607 10610 10610 10611 10611 10611 10611 10612 10613 10614 10614 10614 10615 10615 10616 10618 10619 10619 10620 10620 10620 10621 10621
10536 10539 10541 10542 10544 10544 10546 10549 10552 10554 10556 10557 10559 10562 10565 10567 10569 10570 10571 10573 10574 10575 10576 10578 10580 10581 10582 10582 10582 10582 10584 10586 10587 10589 10591 10592 10592 10593 10593 10594 10596 10597 10598 10598 10599 10602 10604 10607 10612 10616 10617 10617 10616 10614 10612 10612 10613 10615 10617 10619 10619 10614 10609 10609 10610 10609 10608 10607 10606 10606 10607 10608 10610 10611 10611 10611 10612 10612 10613 10613 10614 10615 10616 10616 10616 10616
10531 10533 10535 10536 10537 10538 10541 10544 10547 10549 10550 10552 10554 10557 10559 10561 10563 10565 10566 10567 10569 10571 10572 10574 10575 10576 10577 10578 10577 10577 10578 10580 10582 10584 10586 10587 10588 10588 10589 10590 10591 10593 10593 10593 10594 10596 10600 10605 10610 10614 10614 10612 10610 10608 10608 10610 10612 10613 10613 10613 10612 10611 10610 10609 10607 10605 10603 10602 10602 10602 10603 10604 10606 10608 10608 10608 10607 10608 10608 10607 10608 10609 10611 10612 10612 10612
10525 10527 10528 10530 10531 10533 10536 10539 10542 10543 10544 10546 10548 10551 10554 10556 10558 10559 10561 10563 10565 10566 10567 10569 10570 10571 10572 10573 10573 10573 10574 10575 10576 10578 10580 10582 10583 10584 10585 10585 10587 10588 10588 10589 10589 10591 10597 10603 10609 10614 10611 10606 10603 10604 10606 10608 10610 10610 10609 10608 10606 10606 10606 10604 10602 10600 10598 10598 10598 10598 10598 10600 10601 10603 10603 10603 10603 10603 10603 10602 10603 10604 10606 10607 10608 10608
10519 10520 10522 10524 10526 10528 10531 10534 10536 10538 10539 10541 10543 10546 10548 10551 10553 10554 10556 10558 10560 10561 10562 10564 10565 10566 10568 10568 10568 10568 10569 10570 10571 10571 10573 10576 10577 10579 10580 10580 10582 10583 10584 10585 10584 10587 10592 10599 10607 10611 10605 10599 10599 10601 10603 10605 10606 10606 10604 10602 10601 10600 10600 10598 10596 10594 10594 10594 10593 10593 10594 10595 10596 10598 10598 10598 10599 10599 10599 10599 10599 10599 10600 10602 10603 10604
10513 10515 10517 10519 10521 10524 10527 10529 10531 10532 10533 10535 10537 10540 10543 10546 10548 10549 10551 10553 10554 10555 10556 10558 10559 10561 10563 10564 10564 10564 10564 10565 10565 10566 10567 10569 10572 10574 10574 10576 10577 10578 10579 10579 10579 10581 10586 10593 10601 10600 10593 10592 10594 10597 10601 10602 10603 10604 10602 10598 10595 10593 10592 10592 10591 10591 10590 10590 10590 10590 10591 10591 10591 10592 10592 10592 10593 10595 10596 10596 10596 10596 10596 10597 10599 10600
10508 10510 10512 10514 10516 10518 10521 10523 10524 10525 10527 10529 10531 10535 10538 10541 10543 10544 10545 10547 10548 10549 10550 10552 10554 10556 10558 10559 10559 10558 10558 10559 10560 10561 10562 10563 10566 10568 10569 10571 10572 10573 10574 10574 10574 10576 10582 10589 10593 10591 10587 10589 10593 10598 10603 10603 10601 10600 10596 10591 10590 10587 10587 10587 10587 10587 10587 10588 10589 10588 10588 10587 10587 10587 10586 10586 10587 10589 10591 10592 10592 10592 10592 10592 10594 10595
10501 10504 10506 10508 10510 10512 10514 10515 10517 10519 10522 10524 10526 10529 10532 10535 10537 10538 10539 10541 10542 10544 10546 10548 10549 10551 10553 10553 10552 10552 10552 10553 10554 10555 10557 10559 10561 10563 10565 10566 10567 10568 10569 10570 10571 10573 10577 10583 10587 10586 10585 10588 10593 10598 10602 10600 10595 10591 10585 10582 10582 10581 10580 10581 10581 10582 10584 10585 10586 10585 10584 10583 10582 10582 10581 10580 10581 10582 10585 10587 10589 10589 10588 10587 10589 10590
10494 10496 10499 10501 10503 10505 10507 10509 10511 10514 10517 10519 10521 10523 10525 10527 10530 10532 10534 10535 10537 10539 10541 10542 10544 10545 10546 10546 10546 10546 10547 10548 10549 10550 10552 10554 10556 10558 10560 10561 10562 10563 10564 10567 10569 10570 10573 10576 10580 10581 10581 10585 10590 10594 10597 10594 10586 10581 10578 10576 10576 10573 10573 10575 10576 10578 10579 10580 10581 10581 10580 10578 10578 10577 10577 10576 10576 10575 10577 10580 10583 10584 10583 10582 10584 10585
10487 10489 10493 10496 10498 10500 10501 10503 10506 10508 10511 10513 10515 10516 10517 10520 10524 10526 10528 10530 10531 10534 10535 10537 10538 10539 10539 10539 10540 10540 10541 10542 10543 10545 10547 10549 10551 10554 10555 10556 10558 10559 10561 10564 10566 10567 10569 10570 10573 10575 10577 10580 10585 10587 10588 10585 10578 10575 10573 10571 10570 10570 10568 10569 10571 10572 10574 10574 10575 10575 10574 10573 10573 10573 10572 10572 10572 10571 10572 10573 10575 10578 10578 10577 10579 10580
10482 10483 10486 10490 10492 10493 10495 10498 10500 10503 10505 10508 10509 10510 10511 10514 10518 10519 10521 10524 10526 10528 10529 10531 10532 10533 10533 10534 10534 10534 10535 10536 10537 10540 10542 10544 10546 10548 10550 10551 10553 10554 10557 10559 10561 10563 10564 10564 10566 10570 10572 10575 10578 10578 10576 10574 10571 10570 10566 10561 10561 10564 10564 10564 10565 10566 10568 10568 10568 10568 10568 10568 10569 10569 10569 10568 10568 10568 10568 10567 10568 10571 10572 10572 10573 10574
10476 10477 10480 10483 10485 10487 10489 10491 10494 10497 10499 10501 10503 10504 10505 10508 10511 10512 10514 10518 10520 10522 10524 10525 10526 10528 10528 10528 10528 10529 10530 10531 10532 10534 10536 10539 10541 10543 10545 10547 10548 10550 10552 10553 10555 10557 10558 10558 10561 10564 10565 10568 10571 10570 10568 10566 10565 10564 10558 10549 10550 10557 10560 10559 10559 10560 10561 10562 10562 10563 10563 10563 10563 10564 10564 10563 10564 10565 10564 10563 10563 10564 10565 10567 10567 10568
10470 10471 10473 10476 10478 10481 10484 10486 10488 10491 10493 10495 10497 10498 10500 10502 10503 10505 10508 10511 10514 10516 10518 10519 10521 10522 10522 10522 10523 10523 10524 10526 10527 10528 10530 10532 10535 10537 10539 10541 10544 10545 10546 10547 10550 10552 10552 10552 10555 10556 10556 10559 10563 10562 10561 10560 10559 10559 10552 10544 10545 10551 10554 10553 10553 10553 10555 10556 10556 10557 10557 10558 10559 10559 10559 10558 10559 10560 10561 10560 10558 10557 10557 10559 10561 10562
10465 10466 10468 10470 10472 10475 10478 10481 10483 10485 10487 10489 10491 10492 10494 10495 10497 10499 10501 10504 10507 10510 10512 10513 10515 10516 10515 10516 10518 10518 10519 10520 10522 10523 10524 10526 10528 10530 10532 10535 10538 10539 10540 10541 10543 10544 10545 10546 10548 10548 10548 10551 10554 10554 10554 10553 10553 10552 10547 10542 10543 10546 10547 10546 10547 10548 10550 10551 10551 10551 10553 10554 10554 10555 10555 10554 10554 10555 10556 10556 10555 10553 10551 10551 10552 10554
10460 10461 10462 10464 10466 10469 10473 10475 10477 10479 10481 10483 10485 10486 10487 10489 10491 10493 10495 10498 10501 10503 10505 10507 10509 10509 10510 10511 10512 10512 10513 10514 10516 10518 10519 10520 10521 10523 10526 10528 10531 10532 10533 10534 10535 10536 10538 10539 10541 10542 10543 10544 10546 10547 10547 10547 10547 10546 10543 10540 10539 10540 10541 10541 10542 10544 10546 10546 10546 10547 10548 10548 10549 10549 10549 10549 10548 10549 10549 10550 10550 10550 10548 10546 10545 10545
10454 10456 10456 10458 10462 10465 10468 10470 10472 10474 10475 10477 10479 10480 10481 10483 10485 10487 10489 10491 10493 10495 10498 10501 10503 10503 10504 10505 10505 10506 10507 10508 10510 10512 10513 10514 10516 10517 10520 10522 10524 10525 10526 10527 10528 10529 10531 10534 10536 10537 10538 10538 10539 10540 10541 10541 10542 10541 10539 10537 10536 10535 10536 10536 10537 10539 10541 10541 10542 10542 10542 10542 10543 10543 10543 10543 10542 10542 10543 10544 10545 10545 10544 10543 10541 10540
10448 10450 10451 10454 10457 10460 10462 10464 10466 10468 10469 10471 10473 10475 10476 10477 10478 10480 10482 10484 10486 10489 10492 10494 10496 10497 10497 10497 10498 10500 10501 10502 10504 10506 10507 10508 10510 10511 10513 10515 10517 10518 10519 10521 10522 10523 10525 10528 10530 10531 10532 10532 10533 10533 10534 10535 10536 10537 10535 10534 10533 10532 10532 10532 10532 10533 10534 10536 10536 10535 10536 10536 10536 10536 10536 10536 10536 10536 10536 10536 10537 10537 10537 10537 10536 10535
10442 10444 10446 10448 10451 10455 10458 10459 10461 10462 10463 10464 10466 10467 10469 10470 10472 10474 10476 10477 10480 10483 10485 10487 10489 10490 10490 10491 10492 10494 10495 10496 10497 10499 10500 10501 10503 10504 10506 10508 10510 10511 10513 10514 10515 10516 10518 10520 10522 10523 10524 10525 10526 10527 10528 10528 10530 10531 10532 10531 10530 10529 10528 10527 10527 10527 10528 10529 10530 10529 10529 10529 10529 10529 10529 10529 10529 10528 10528 10528 10528 10529 10528 10528 10528 10528
10434 10436 10440 10442 10445 10449 10452 10452 10452 10453 10455 10457 10458 10461 10463 10464 10466 10468 10470 10472 10475 10477 10479 10481 10482 10483 10483 10484 10486 10487 10488 10489 10490 10491 10492 10494 10495 10497 10499 10501 10502 10504 10505 10507 10508 10509 10510 10512 10514 10516 10517 10518 10518 10519 10520 10521 10522 10524 10525 10526 10525 10525 10524 10523 10522 10522 10522 10522 10523 10523 10522 10522 10522 10522 10522 10523 10521 10520 10520 10520 10520 10520 10519 10518 10519 10520
10426 10429 10434 10436 10438 10441 10443 10443 10444 10446 10449 10451 10452 10455 10457 10459 10461 10463 10464 10467 10469 10471 10473 10475 10476 10476 10476 10477 10478 10480 10481 10482 10483 10484 10485 10486 10487 10489 10491 10493 10494 10495 10497 10499 10500 10502 10503 10504 10506 10508 10510 10511 10512 10512 10513 10514 10514 10516 10517 10518 10518 10518 10518 10517 10516 10516 10515 10515 10515 10516 10516 10516 10515 10514 10515 10515 10514 10512 10513 10513 10513 10512 10511 10510 10511 10512
10419 10422 10426 10429 10430 10432 10435 10437 10438 10439 10442 10444 10446 10448 10450 10451 10453 10455 10457 10460 10462 10464 10466 10468 10469 10469 10468 10469 10470 10471 10473 10475 10475 10476 10477 10478 10479 10481 10482 10484 10486 10487 10489 10490 10492 10494 10495 10497 10499 10501 10503 10504 10504 10505 10506 10506 10507 10508 10509 10509 10509 10509 10510 10510 10509 10508 10507 10507 10508 10508 10509 10509 10508 10507 10507 10507 10506 10505 10504 10505 10505 10505 10504 10504 10504 10505
10413 10415 10419 10422 10424 10426 10427 10429 10431 10432 10433 10436 10439 10441 10443 10444 10446 10448 10450 10453 10455 10457 10459 10460 10461 10461 10461 10462 10463 10463 10465 10467 10468 10468 10469 10470 10471 10473 10474 10476 10477 10479 10480 10482 10483 10485 10487 10490 10492 10494 10495 10496 10496 10497 10497 10498 10498 10499 10500 10500 10500 10500 10501 10501 10501 10500 10500 10500 10500 10501 10501 10501 10501 10500 10500 10499 10499 10498 10497 10496 10497 10497 10497 10498 10498 10498
10407 10409 10411 10414 10418 10420 10420 10422 10424 10425 10426 10427 10431 10434 10436 10437 10439 10441 10443 10446 10448 10450 10451 10452 10453 10454 10454 10455 10455 10456 10457 10459 10460 10461 10462 10462 10463 10464 10466 10467 10468 10470 10471 10472 10474 10476 10478 10481 10483 10485 10486 10487 10488 10488 10488 10489 10489 10489 10490 10490 10490 10491 10491 10491 10491 10491 10492 10492 10492 10492 10493 10493 10493 10493 10493 10492 10491 10490 10490 10489 10489 10489 10490 10491 10491 10491
10400 10402 10404 10407 10410 10413 10413 10414 10415 10417 10418 10420 10422 10426 10428 10430 10432 10434 10436 10438 10440 10442 10443 10445 10446 10447 10448 10448 10448 10448 10448 10450 10452 10453 10454 10455 10455 10456 10457 10458 10459 10461 10462 10464 10465 10467 10469 10471 10473 10475 10477 10478 10479 10479 10479 10479 10479 10479 10479 10479 10479 10480 10480 10481 10481 10482 10483 10484 10484 10484 10484 10484 10485 10485 10485 10484 10483 10483 10483 10482 10482 10482 10482 10483 10483 10483
10394 10396 10397 10399 10403 10405 10405 10405 10407 10409 10411 10414 10416 10418 10421 10423 10425 10427 10429 10430 10432 10433 10435 10437 10438 10438 10440 10440 10440 10440 10440 10441 10443 10445 10446 10446 10446 10447 10448 10449 10451 10452 10454 10456 10457 10459 10460 10462 10463 10464 10466 10468 10469 10469 10469 10468 10468 10468 10469 10469 10469 10469 10470 10470 10471 10472 10473 10474 10475 10475 10475 10476 10476 10477 10477 10476 10476 10475 10475 10475 10475 10474 10475 10475 10475 10475
10389 10391 10391 10392 10395 10397 10397 10397 10399 10402 10405 10409 10410 10412 10414 10416 10417 10419 10421 10422 10423 10424 10426 10428 10429 10430 10431 10432 10432 10432 10432 10432 10433 10435 10436 10437 10437 10438 10439 10441 10442 10444 10446 10447 10449 10450 10451 10452 10453 10454 10454 10455 10456 10457 10458 10458 10458 10459 10460 10461 10461 10461 10461 10461 10461 10462 10463 10464 10465 10466 10466 10466 10467 10468 10468 10468 10468 10468 10468 10468 10467 10467 10467 10467 10467 10468
10384 10385 10385 10387 10389 10390 10390 10391 10393 10396 10400 10402 10403 10404 10406 10408 10410 10411 10412 10412 10413 10414 10416 10418 10419 10420 10421 10422 10423 10423 10423 10423 10424 10425 10427 10428 10429 10430 10432 10433 10434 10435 10437 10438 10440 10441 10442 10442 10443 10443 10442 10443 10444 10445 10445 10446 10448 10450 10452 10452 10452 10452 10452 10452 10452 10452 10453 10453 10454 10454 10455 10455 10457 10458 10458 10458 10458 10459 10460 10459 10458 10458 10458 10458 10459 10459
10377 10378 10379 10380 10382 10383 10384 10386 10389 10392 10393 10392 10394 10397 10398 10400 10401 10402 10402 10403 10403 10403 10405 10407 10409 10410 10412 10413 10413 10414 10414 10415 10416 10418 10419 10420 10422 10423 10424 10425 10426 10427 10428 10429 10430 10431 10432 10433 10432 10431 10431 10432 10432 10431 10431 10433 10436 10439 10441 10442 10442 10442 10442 10442 10442 10442 10442 10442 10442 10442 10443 10444 10445 10446 10447 10447 10448 10449 10450 10449 10449 10449 10450 10450 10450 10450
10370 10371 10371 10373 10374 10376 10378 10381 10384 10386 10385 10385 10388 10390 10390 10390 10391 10392 10393 10393 10394 10395 10396 10398 10401 10402 10403 10403 10404 10405 10406 10408 10410 10411 10412 10413 10416 10417 10417 10417 10418 10420 10420 10420 10421 10422 10422 10422 10421 10421 10422 10422 10421 10419 10419 10421 10424 10426 10428 10430 10431 10432 10432 10432 10431 10431 10430 10430 10430 10430 10430 10431 10433 10435 10435 10435 10436 10436 10437 10438 10438 10439 10440 10440 10440 10440
10362 10363 10364 10365 10366 10368 10370 10372 10376 10378 10379 10381 10382 10382 10381 10381 10381 10383 10384 10385 10386 10388 10389 10390 10392 10393 10394 10394 10395 10396 10397 10399 10401 10403 10404 10406 10408 10409 10409 10409 10411 10413 10412 10412 10413 10414 10413 10413 10412 10412 10413 10413 10411 10409 10409 10410 10413 10414 10416 10417 10419 10420 10420 10420 10420 10419 10418 10418 10418 10418 10419 10420 10422 10423 10423 10424 10424 10424 10425 10426 10427 10429 10429 10430 10430 10431
10353 10355 10356 10356 10357 10359 10361 10363 10367 10371 10373 10374 10374 10374 10374 10373 10373 10375 10375 10376 10378 10380 10380 10381 10382 10383 10384 10385 10386 10388 10389 10390 10392 10393 10394 10396 10397 10399 10400 10401 10402 10403 10404 10404 10405 10405 10405 10405 10404 10403 10403 10403 10401 10400 10399 10400 10402 10404 10405 10406 10407 10408 10408 10408 10408 10407 10407 10407 10407 10407 10408 10410 10410 10411 10412 10412 10413 10413 10414 10415 10417 10418 10419 10419 10420 10420
10345 10346 10347 10346 10347 10350 10353 10355 10358 10363 10365 10365 10365 10366 10366 10366 10366 10366 10367 10370 10372 10371 10369 10370 10372 10373 10375 10376 10377 10378 10379 10380 10381 10382 10384 10386 10387 10388 10390 10390 10392 10393 10394 10395 10396 10396 10396 10396 10396 10395 10394 10394 10393 10392 10390 10390 10391 10392 10393 10395 10396 10396 10397 10397 10397 10396 10396 10397 10397 10397 10398 10399 10399 10400 10401 10401 10402 10403 10404 10405 10406 10407 10407 10408 10408 10410
10336 10337 10337 10338 10340 10343 10345 10346 10350 10354 10357 10358 10357 10356 10356 10356 10356 10357 10361 10364 10364 10360 10359 10361 10363 10364 10365 10366 10367 10368 10368 10369 10371 10372 10373 10375 10376 10377 10378 10379 10381 10382 10383 10384 10385 10386 10386 10386 10386 10386 10386 10385 10384 10383 10382 10381 10380 10381 10382 10383 10384 10385 10386 10387 10387 10387 10386 10386 10385 10385 10386 10387 10388 10389 10391 10391 10391 10392 10394 10395 10395 10396 10396 10396 10397 10398
10327 10327 10328 10331 10333 10335 10336 10337 10341 10345 10349 10350 10349 10348 10347 10347 10348 10350 10354 10355 10353 10351 10352 10353 10354 10355 10356 10357 10358 10358 10359 10360 10361 10362 10363 10364 10364 10365 10366 10367 10368 10369 10370 10371 10372 10373 10374 10375 10376 10376 10376 10376 10376 10375 10374 10373 10371 10371 10370 10371 10373 10374 10375 10375 10375 10376 10376 10376 10375 10375 10375 10375 10376 10377 10379 10380 10381 10382 10384 10385 10385 10385 10385 10385 10387 10388
10317 10318 10319 10322 10324 10326 10327 10328 10331 10336 10339 10340 10340 10339 10339 10339 10340 10343 10344 10343 10344 10344 10344 10344 10345 10345 10346 10347 10348 10349 10350 10351 10351 10352 10352 10353 10353 10353 10354 10354 10355 10356 10357 10358 10359 10360 10361 10362 10363 10364 10365 10366 10366 10365 10365 10364 10363 10362 10361 10361 10361 10362 10362 10363 10363 10363 10364 10364 10364 10364 10364 10364 10364 10365 10366 10367 10369 10371 10373 10375 10375 10375 10375 10376 10377 10378
10309 10309 10310 10312 10314 10316 10317 10319 10322 10326 10328 10329 10329 10329 10330 10330 10332 10334 10333 10334 10335 10335 10336 10336 10336 10336 10336 10337 10337 10338 10339 10340 10340 10341 10341 10342 10342 10342 10342 10343 10343 10344 10345 10345 10346 10347 10348 10348 10350 10351 10352 10353 10354 10354 10354 10353 10353 10352 10351 10351 10351 10351 10351 10351 10351 10351 10351 10352 10352 10353 10353 10353 10353 10353 10354 10354 10356 10358 10360 10362 10363 10364 10365 10366 10367 10368
10300 10301 10301 10303 10304 10306 10307 10309 10312 10316 10318 10318 10319 10320 10320 10321 10323 10323 10324 10325 10325 10326 10326 10326 10326 10326 10326 10326 10326 10327 10328 10328 10329 10329 10330 10330 10330 10331 10331 10331 10331 10332 10332 10332 10333 10334 10335 10335 10336 10336 10338 10339 10341 10342 10342 10342 10342 10341 10340 10340 10341 10341 10340 10340 10340 10340 10341 10341 10342 10342 10342 10342 10342 10342 10342 10342 10342 10344 10345 10347 10350 10352 10354 10355 10357 10358
10291 10292 10293 10294 10296 10297 10297 10299 10302 10305 10307 10308 10309 10310 10311 10312 10313 10313 10314 10315 10315 10316 10316 10316 10316 10316 10316 10316 10316 10316 10316 10316 10316 10317 10318 10318 10318 10319 10319 10318 10318 10318 10319 10319 10319 10320 10320 10321 10322 10322 10323 10324 10326 10328 10329 10330 10330 10329 10328 10328 10329 10329 10329 10329 10329 10329 10329 10330 10331 10331 10332 10332 10331 10331 10331 10331 10331 10331 10331 10332 10335 10338 10340 10342 10344 10346
10282 10284 10285 10286 10287 10288 10289 10290 10291 10294 10296 10298 10299 10300 10301 10302 10303 10303 10304 10305 10305 10306 10306 10306 10306 10306 10305 10305 10305 10304 10304 10304 10305 10305 10305 10306 10306 10306 10307 10306 10306 10306 10306 10306 10305 10305 10306 10306 10307 10308 10308 10309 10310 10312 10314 10315 10315 10315 10315 10314 10315 10316 10316 10316 10317 10317 10318 10318 10319 10320 10320 10321 10320 10320 10321 10320 10320 10321 10320 10320 10321 10323 10325 10328 10330 10332
10273 10275 10276 10277 10278 10279 10280 10281 10282 10284 10285 10287 10288 10289 10290 10291 10292 10293 10294 10294 10294 10294 10295 10295 10295 10294 10294 10294 10294 10293 10293 10293 10293 10293 10294 10294 10295 10295 10296 10296 10295 10294 10294 10294 10294 10293 10293 10293 10293 10294 10294 10294 10294 10295 10297 10297 10298 10299 10299 10299 10300 10302 10303 10303 10304 10305 10305 10306 10306 10307 10307 10308 10308 10308 10308 10309 10309 10310 10310 10310 10310 10310 10311 10313 10315 10317
10265 10266 10268 10268 10269 10270 10270 10271 10273 10274 10275 10276 10277 10278 10279 10279 10280 10280 10281 10281 10282 10282 10282 10282 10283 10283 10283 10283 10282 10282 10282 10282 10283 10283 10284 10284 10284 10284 10285 10285 10285 10284 10282 10282 10281 10281 10281 10281 10281 10280 10280 10280 10280 10280 10281 10281 10281 10282 10284 10285 10286 10288 10289 10290 10291 10292 10293 10293 10293 10293 10293 10293 10293 10294 10294 10295 10297 10298 10299 10299 10300 10300 10300 10300 10300 10302
10255 10257 10258 10258 10259 10260 10261 10262 10263 10264 10264 10265 10266 10266 10267 10267 10267 10268 10268 10269 10270 10270 10271 10271 10272 10272 10272 10272 10272 10272 10272 10273 10273 10273 10273 10272 10272 10272 10272 10273 10273 10273 10272 10270 10270 10270 10270 10269 10268 10267 10266 10266 10265 10265 10265 10266 10266 10268 10270 10272 10273 10274 10276 10277 10277 10279 10279 10278 10277 10277 10276 10276 10277 10278 10280 10281 10283 10284 10285 10286 10287 10289 10290 10290 10289 10290
10246 10246 10247 10248 10249 10249 10250 10252 10253 10253 10254 10255 10256 10256 10257 10257 10258 10258 10258 10259 10259 10259 10259 10260 10260 10260 10261 10261 10261 10262 10262 10261 10261 10261 10260 10259 10258 10259 10260 10261 10261 10260 10259 10258 10258 10258 10257 10257 10256 10256 10255 10253 10252 10251 10251 10252 10252 10254 10256 10258 10260 10261 10262 10263 10263 10264 10264 10262 10261 10260 10259 10259 10261 10263 10265 10267 10268 10270 10272 10272 10273 10276 10278 10278 10279 10280
10237 10238 10239 10240 10241 10241 10242 10243 10244 10244 10245 10246 10247 10247 10247 10248 10248 10248 10248 10248 10248 10248 10248 10248 10249 10249 10250 10250 10250 10250 10249 10248 10248 10248 10248 10247 10247 10247 10248 10248 10248 10247 10245 10245 10245 10244 10243 10243 10243 10244 10243 10242 10241 10240 10240 10240 10240 10241 10243 10245 10246 10247 10248 10248 10247 10248 10248 10246 10246 10247 10246 10247 10248 10250 10251 10253 10254 10256 10258 10260 10260 10262 10264 10265 10266 10268